TimeCDT,TemperatureF,Dew PointF,Humidity,Sea Level PressureIn,VisibilityMPH,Wind Direction,Wind SpeedMPH,Gust SpeedMPH,PrecipitationIn,Events,Conditions,WindDirDegrees,DateUTC
12:54 AM,80.1,72.0,76,30.14,9.0,East,5.8,-,N/A,,Partly Cloudy,100,2013-08-25 05:54:00
1:54 AM,79.0,71.1,77,30.14,9.0,East,4.6,-,N/A,,Partly Cloudy,100,2013-08-25 06:54:00
2:54 AM,79.0,70.0,74,30.14,10.0,SE,5.8,-,N/A,,Clear,130,2013-08-25 07:54:00
3:54 AM,78.1,71.1,79,30.16,10.0,SSE,8.1,-,N/A,,Clear,150,2013-08-25 08:54:00
4:54 AM,78.1,71.1,79,30.17,10.0,SE,8.1,-,N/A,,Clear,140,2013-08-25 09:54:00
5:54 AM,77.0,71.1,82,30.19,9.0,ESE,4.6,-,N/A,,Clear,120,2013-08-25 10:54:00
6:54 AM,75.9,71.1,85,30.22,7.0,SE,6.9,-,N/A,,Clear,140,2013-08-25 11:54:00
7:54 AM,77.0,71.1,82,30.23,9.0,SE,5.8,-,N/A,,Clear,140,2013-08-25 12:54:00
8:16 AM,77.0,71.6,83,30.24,7.0,SSE,10.4,-,N/A,,Mostly Cloudy,150,2013-08-25 13:16:00
8:32 AM,77.0,71.6,83,30.24,6.0,SSE,11.5,-,N/A,,Haze,150,2013-08-25 13:32:00
8:54 AM,78.1,72.0,81,30.24,5.0,SE,10.4,-,N/A,,Haze,130,2013-08-25 13:54:00
9:21 AM,78.8,71.6,78,30.25,6.0,SE,9.2,-,N/A,,Haze,140,2013-08-25 14:21:00
9:54 AM,79.0,72.0,79,30.25,6.0,SSE,8.1,-,N/A,,Haze,150,2013-08-25 14:54:00
10:54 AM,80.1,72.0,76,30.25,8.0,SSE,8.1,-,N/A,,Overcast,150,2013-08-25 15:54:00
11:49 AM,80.6,71.6,74,30.27,8.0,SSE,9.2,-,N/A,,Overcast,150,2013-08-25 16:49:00
11:54 AM,80.1,71.1,74,30.26,7.0,SSE,8.1,-,N/A,,Overcast,160,2013-08-25 16:54:00
12:54 PM,81.0,71.1,72,30.24,8.0,SE,8.1,-,N/A,,Overcast,130,2013-08-25 17:54:00
1:54 PM,82.9,72.0,69,30.22,8.0,South,5.8,-,N/A,,Overcast,170,2013-08-25 18:54:00
2:16 PM,84.2,71.6,66,30.22,10.0,Variable,3.5,-,N/A,,Mostly Cloudy,0,2013-08-25 19:16:00
2:54 PM,86.0,71.1,61,30.20,10.0,SE,6.9,-,N/A,,Mostly Cloudy,140,2013-08-25 19:54:00
3:10 PM,87.8,71.6,58,30.21,10.0,SE,5.8,-,N/A,,Mostly Cloudy,130,2013-08-25 20:10:00
3:39 PM,87.8,71.6,58,30.20,10.0,Calm,Calm,-,N/A,,Mostly Cloudy,0,2013-08-25 20:39:00
3:54 PM,87.1,70.0,57,30.19,10.0,ESE,5.8,-,N/A,,Mostly Cloudy,120,2013-08-25 20:54:00
4:22 PM,87.8,69.8,55,30.19,10.0,ESE,6.9,-,N/A,,Scattered Clouds,110,2013-08-25 21:22:00
4:54 PM,89.1,70.0,53,30.17,10.0,South,6.9,-,N/A,,Scattered Clouds,170,2013-08-25 21:54:00
5:54 PM,87.1,68.0,53,30.17,10.0,South,6.9,-,N/A,,Scattered Clouds,190,2013-08-25 22:54:00
6:54 PM,87.1,69.1,55,30.17,10.0,ESE,5.8,-,N/A,,Partly Cloudy,120,2013-08-25 23:54:00
7:54 PM,84.0,70.0,63,30.18,10.0,Calm,Calm,-,N/A,,Scattered Clouds,0,2013-08-26 00:54:00
8:54 PM,81.0,70.0,69,30.20,10.0,SSW,4.6,-,N/A,,Scattered Clouds,200,2013-08-26 01:54:00
9:54 PM,82.9,69.1,63,30.22,10.0,SE,8.1,-,N/A,,Partly Cloudy,140,2013-08-26 02:54:00
10:54 PM,82.0,69.1,65,30.22,10.0,SE,6.9,-,N/A,,Clear,140,2013-08-26 03:54:00
11:54 PM,80.1,69.1,69,30.22,10.0,SSE,5.8,-,N/A,,Clear,160,2013-08-26 04:54:00